Location: Recife
(8.0585°S, 34.8848°W)
Time: 11:18:52
(UTC-03:00)

Altair - Pass Details

Date: 23 April 2026
Orbit: 1501 x 1682 km, 47.2° (Epoch: 20 May)

Event Time Altitude Azimuth Distance (km) Brightness Sun altitude
Rises 08:41:47 0° 252° (WSW) 4,869 9.7 46.0°
Reaches altitude 10° 08:46:12 10° 269° (W) 3,904 9.4 47.0°
Maximum altitude 08:52:37 19° 309° (NW) 3,261 9.3 48.4°
Drops below altitude 10° 08:59:07 10° 350° (N) 3,931 10.0 49.8°
Sets 09:03:40 0° 7° (N) 4,914 10.5 50.8°
